owner,sensor,date,latitude,longitude,vertical_datum,sea_water_temperature,qcFlag
LLOG,ioos:station:wmo:42940:1,2022-01-01T00:04:00Z,27.6913,-91.1141,10.0,37.0,11133222
LLOG,ioos:station:wmo:42940:1,2022-01-01T00:14:00Z,27.6913,-91.1141,10.0,31.2,11111222
LLOG,ioos:station:wmo:42940:1,2022-01-01T00:24:00Z,27.6913,-91.1141,10.0,35.3,11133222
LLOG,ioos:station:wmo:42940:1,2022-01-01T00:34:00Z,27.6913,-91.1141,10.0,37.5,11133222
LLOG,ioos:station:wmo:42940:1,2022-01-01T00:44:00Z,27.6913,-91.1141,10.0,36.9,11133222
LLOG,ioos:station:wmo:42940:1,2022-01-01T00:54:00Z,27.6913,-91.1141,10.0,33.5,11111222
LLOG,ioos:station:wmo:42940:1,2022-01-01T01:04:00Z,27.6913,-91.1141,10.0,35.1,11133222
LLOG,ioos:station:wmo:42940:1,2022-01-01T01:14:00Z,27.6913,-91.1141,10.0,33.1,11111222
LLOG,ioos:station:wmo:42940:1,2022-01-01T01:24:00Z,27.6913,-91.1141,10.0,32.6,11111222
LLOG,ioos:station:wmo:42940:1,2022-01-01T01:34:00Z,27.6913,-91.1141,10.0,34.0,11111222
LLOG,ioos:station:wmo:42940:1,2022-01-01T01:44:00Z,27.6913,-91.1141,10.0,34.9,11111222
LLOG,ioos:station:wmo:42940:1,2022-01-01T01:54:00Z,27.6913,-91.1141,10.0,34.0,11111222
LLOG,ioos:station:wmo:42940:1,2022-01-01T02:04:00Z,27.6913,-91.1141,10.0,33.0,11111222
LLOG,ioos:station:wmo:42940:1,2022-01-01T02:14:00Z,27.6913,-91.1141,10.0,32.1,11111222
LLOG,ioos:station:wmo:42940:1,2022-01-01T02:24:00Z,27.6913,-91.1141,10.0,34.8,11111222
LLOG,ioos:station:wmo:42940:1,2022-01-01T02:34:00Z,27.6913,-91.1141,10.0,34.9,11111222
LLOG,ioos:station:wmo:42940:1,2022-01-01T02:44:00Z,27.6913,-91.1141,10.0,35.6,11133222
LLOG,ioos:station:wmo:42940:1,2022-01-01T02:54:00Z,27.6913,-91.1141,10.0,35.9,11133222
LLOG,ioos:station:wmo:42940:1,2022-01-01T03:04:00Z,27.6913,-91.1141,10.0,36.5,11133222
LLOG,ioos:station:wmo:42940:1,2022-01-01T03:14:00Z,27.6913,-91.1141,10.0,36.1,11133222
LLOG,ioos:station:wmo:42940:1,2022-01-01T03:24:00Z,27.6913,-91.1141,10.0,37.0,11133222
LLOG,ioos:station:wmo:42940:1,2022-01-01T03:34:00Z,27.6913,-91.1141,10.0,36.2,11133222
LLOG,ioos:station:wmo:42940:1,2022-01-01T03:44:00Z,27.6913,-91.1141,10.0,34.3,11111222
LLOG,ioos:station:wmo:42940:1,2022-01-01T03:54:00Z,27.6913,-91.1141,10.0,33.7,11111222
LLOG,ioos:station:wmo:42940:1,2022-01-01T04:04:00Z,27.6913,-91.1141,10.0,33.0,11111222
LLOG,ioos:station:wmo:42940:1,2022-01-01T04:14:00Z,27.6913,-91.1141,10.0,34.2,11111222
LLOG,ioos:station:wmo:42940:1,2022-01-01T04:24:00Z,27.6913,-91.1141,10.0,30.8,11111222
LLOG,ioos:station:wmo:42940:1,2022-01-01T04:34:00Z,27.6913,-91.1141,10.0,34.8,11111222
LLOG,ioos:station:wmo:42940:1,2022-01-01T04:44:00Z,27.6913,-91.1141,10.0,33.0,11111222
LLOG,ioos:station:wmo:42940:1,2022-01-01T04:54:00Z,27.6913,-91.1141,10.0,31.4,11111222
LLOG,ioos:station:wmo:42940:1,2022-01-01T05:04:00Z,27.6913,-91.1141,10.0,32.6,11111222
LLOG,ioos:station:wmo:42940:1,2022-01-01T05:14:00Z,27.6913,-91.1141,10.0,35.0,11111222
LLOG,ioos:station:wmo:42940:1,2022-01-01T05:24:00Z,27.6913,-91.1141,10.0,35.1,11133222
LLOG,ioos:station:wmo:42940:1,2022-01-01T05:34:00Z,27.6913,-91.1141,10.0,33.1,11111222
LLOG,ioos:station:wmo:42940:1,2022-01-01T05:44:00Z,27.6913,-91.1141,10.0,30.7,11111222
LLOG,ioos:station:wmo:42940:1,2022-01-01T05:54:00Z,27.6913,-91.1141,10.0,31.8,11111222
LLOG,ioos:station:wmo:42940:1,2022-01-01T06:04:00Z,27.6913,-91.1141,10.0,31.0,11111222
LLOG,ioos:station:wmo:42940:1,2022-01-01T06:14:00Z,27.6913,-91.1141,10.0,30.3,11111222
LLOG,ioos:station:wmo:42940:1,2022-01-01T06:24:00Z,27.6913,-91.1141,10.0,30.1,11111222
LLOG,ioos:station:wmo:42940:1,2022-01-01T06:34:00Z,27.6913,-91.1141,10.0,30.6,11111222
LLOG,ioos:station:wmo:42940:1,2022-01-01T06:44:00Z,27.6913,-91.1141,10.0,29.9,11111222
LLOG,ioos:station:wmo:42940:1,2022-01-01T06:54:00Z,27.6913,-91.1141,10.0,32.4,11111222
LLOG,ioos:station:wmo:42940:1,2022-01-01T07:04:00Z,27.6913,-91.1141,10.0,31.6,11111222
LLOG,ioos:station:wmo:42940:1,2022-01-01T07:14:00Z,27.6913,-91.1141,10.0,29.2,11111222
LLOG,ioos:station:wmo:42940:1,2022-01-01T07:24:00Z,27.6913,-91.1141,10.0,32.3,11111222
LLOG,ioos:station:wmo:42940:1,2022-01-01T07:34:00Z,27.6913,-91.1141,10.0,34.0,11111222
LLOG,ioos:station:wmo:42940:1,2022-01-01T07:44:00Z,27.6913,-91.1141,10.0,37.6,11133222
LLOG,ioos:station:wmo:42940:1,2022-01-01T07:54:00Z,27.6913,-91.1141,10.0,37.9,11133222
LLOG,ioos:station:wmo:42940:1,2022-01-01T08:04:00Z,27.6913,-91.1141,10.0,28.5,11111222
LLOG,ioos:station:wmo:42940:1,2022-01-01T08:14:00Z,27.6913,-91.1141,10.0,30.2,11111222
LLOG,ioos:station:wmo:42940:1,2022-01-01T08:24:00Z,27.6913,-91.1141,10.0,31.1,11111222
LLOG,ioos:station:wmo:42940:1,2022-01-01T08:34:00Z,27.6913,-91.1141,10.0,29.1,11111222
LLOG,ioos:station:wmo:42940:1,2022-01-01T08:44:00Z,27.6913,-91.1141,10.0,33.8,11111222
LLOG,ioos:station:wmo:42940:1,2022-01-01T08:54:00Z,27.6913,-91.1141,10.0,33.3,11111222
LLOG,ioos:station:wmo:42940:1,2022-01-01T09:04:00Z,27.6913,-91.1141,10.0,33.1,11111222
LLOG,ioos:station:wmo:42940:1,2022-01-01T09:14:00Z,27.6913,-91.1141,10.0,25.0,11111222
LLOG,ioos:station:wmo:42940:1,2022-01-01T09:24:00Z,27.6913,-91.1141,10.0,28.7,11111222
LLOG,ioos:station:wmo:42940:1,2022-01-01T09:34:00Z,27.6913,-91.1141,10.0,31.0,11111222
LLOG,ioos:station:wmo:42940:1,2022-01-01T09:44:00Z,27.6913,-91.1141,10.0,32.7,11111222
LLOG,ioos:station:wmo:42940:1,2022-01-01T09:54:00Z,27.6913,-91.1141,10.0,38.4,11133222
LLOG,ioos:station:wmo:42940:1,2022-01-01T10:04:00Z,27.6913,-91.1141,10.0,36.5,11133222
LLOG,ioos:station:wmo:42940:1,2022-01-01T10:14:00Z,27.6913,-91.1141,10.0,35.5,11133222
LLOG,ioos:station:wmo:42940:1,2022-01-01T10:24:00Z,27.6913,-91.1141,10.0,36.9,11133222
LLOG,ioos:station:wmo:42940:1,2022-01-01T10:34:00Z,27.6913,-91.1141,10.0,39.1,11133222
LLOG,ioos:station:wmo:42940:1,2022-01-01T10:44:00Z,27.6913,-91.1141,10.0,42.5,11144222
LLOG,ioos:station:wmo:42940:1,2022-01-01T10:54:00Z,27.6913,-91.1141,10.0,37.2,11133222
LLOG,ioos:station:wmo:42940:1,2022-01-01T11:04:00Z,27.6913,-91.1141,10.0,37.6,11133222
LLOG,ioos:station:wmo:42940:1,2022-01-01T11:14:00Z,27.6913,-91.1141,10.0,41.3,11144222
LLOG,ioos:station:wmo:42940:1,2022-01-01T11:24:00Z,27.6913,-91.1141,10.0,38.8,11133222
LLOG,ioos:station:wmo:42940:1,2022-01-01T11:34:00Z,27.6913,-91.1141,10.0,39.2,11133222
LLOG,ioos:station:wmo:42940:1,2022-01-01T11:44:00Z,27.6913,-91.1141,10.0,39.2,11133222
LLOG,ioos:station:wmo:42940:1,2022-01-01T11:54:00Z,27.6913,-91.1141,10.0,37.7,11133222
LLOG,ioos:station:wmo:42940:1,2022-01-01T12:04:00Z,27.6913,-91.1141,10.0,36.8,11133222
LLOG,ioos:station:wmo:42940:1,2022-01-01T12:14:00Z,27.6913,-91.1141,10.0,39.4,11133222
LLOG,ioos:station:wmo:42940:1,2022-01-01T12:24:00Z,27.6913,-91.1141,10.0,38.0,11133222
LLOG,ioos:station:wmo:42940:1,2022-01-01T12:34:00Z,27.6913,-91.1141,10.0,37.2,11133222
LLOG,ioos:station:wmo:42940:1,2022-01-01T12:44:00Z,27.6913,-91.1141,10.0,36.6,11133222
LLOG,ioos:station:wmo:42940:1,2022-01-01T12:54:00Z,27.6913,-91.1141,10.0,36.9,11133222
LLOG,ioos:station:wmo:42940:1,2022-01-01T13:04:00Z,27.6913,-91.1141,10.0,36.0,11133222
LLOG,ioos:station:wmo:42940:1,2022-01-01T13:14:00Z,27.6913,-91.1141,10.0,35.0,11133222
LLOG,ioos:station:wmo:42940:1,2022-01-01T13:24:00Z,27.6913,-91.1141,10.0,39.7,11133222
LLOG,ioos:station:wmo:42940:1,2022-01-01T13:34:00Z,27.6913,-91.1141,10.0,30.7,11111222
LLOG,ioos:station:wmo:42940:1,2022-01-01T13:44:00Z,27.6913,-91.1141,10.0,30.8,11111222
LLOG,ioos:station:wmo:42940:1,2022-01-01T13:54:00Z,27.6913,-91.1141,10.0,31.1,11111222
LLOG,ioos:station:wmo:42940:1,2022-01-01T14:04:00Z,27.6913,-91.1141,10.0,34.5,11111222
LLOG,ioos:station:wmo:42940:1,2022-01-01T14:14:00Z,27.6913,-91.1141,10.0,35.9,11133222
LLOG,ioos:station:wmo:42940:1,2022-01-01T14:24:00Z,27.6913,-91.1141,10.0,35.5,11133222
LLOG,ioos:station:wmo:42940:1,2022-01-01T14:34:00Z,27.6913,-91.1141,10.0,32.6,11111222
LLOG,ioos:station:wmo:42940:1,2022-01-01T14:44:00Z,27.6913,-91.1141,10.0,33.0,11111222
LLOG,ioos:station:wmo:42940:1,2022-01-01T14:54:00Z,27.6913,-91.1141,10.0,35.3,11133222
LLOG,ioos:station:wmo:42940:1,2022-01-01T15:04:00Z,27.6913,-91.1141,10.0,35.0,11133222
LLOG,ioos:station:wmo:42940:1,2022-01-01T15:14:00Z,27.6913,-91.1141,10.0,36.5,11133222
LLOG,ioos:station:wmo:42940:1,2022-01-01T15:24:00Z,27.6913,-91.1141,10.0,32.2,11111222
LLOG,ioos:station:wmo:42940:1,2022-01-01T15:34:00Z,27.6913,-91.1141,10.0,34.3,11111222
LLOG,ioos:station:wmo:42940:1,2022-01-01T15:44:00Z,27.6913,-91.1141,10.0,35.2,11133222
LLOG,ioos:station:wmo:42940:1,2022-01-01T15:54:00Z,27.6913,-91.1141,10.0,35.7,11133222
LLOG,ioos:station:wmo:42940:1,2022-01-01T16:04:00Z,27.6913,-91.1141,10.0,34.3,11111222
LLOG,ioos:station:wmo:42940:1,2022-01-01T16:14:00Z,27.6913,-91.1141,10.0,32.8,11111222
LLOG,ioos:station:wmo:42940:1,2022-01-01T16:24:00Z,27.6913,-91.1141,10.0,28.6,11111222
LLOG,ioos:station:wmo:42940:1,2022-01-01T16:34:00Z,27.6913,-91.1141,10.0,29.4,11111222
LLOG,ioos:station:wmo:42940:1,2022-01-01T16:44:00Z,27.6913,-91.1141,10.0,30.9,11111222
LLOG,ioos:station:wmo:42940:1,2022-01-01T16:54:00Z,27.6913,-91.1141,10.0,31.7,11111222
LLOG,ioos:station:wmo:42940:1,2022-01-01T17:04:00Z,27.6913,-91.1141,10.0,31.3,11111222
LLOG,ioos:station:wmo:42940:1,2022-01-01T17:14:00Z,27.6913,-91.1141,10.0,33.0,11111222
LLOG,ioos:station:wmo:42940:1,2022-01-01T17:24:00Z,27.6913,-91.1141,10.0,35.3,11133222
LLOG,ioos:station:wmo:42940:1,2022-01-01T17:34:00Z,27.6913,-91.1141,10.0,33.6,11111222
LLOG,ioos:station:wmo:42940:1,2022-01-01T17:44:00Z,27.6913,-91.1141,10.0,33.7,11111222
LLOG,ioos:station:wmo:42940:1,2022-01-01T17:54:00Z,27.6913,-91.1141,10.0,29.4,11111222
LLOG,ioos:station:wmo:42940:1,2022-01-01T18:04:00Z,27.6913,-91.1141,10.0,33.8,11111222
LLOG,ioos:station:wmo:42940:1,2022-01-01T18:14:00Z,27.6913,-91.1141,10.0,35.1,11133222
LLOG,ioos:station:wmo:42940:1,2022-01-01T18:24:00Z,27.6913,-91.1141,10.0,33.5,11111222
LLOG,ioos:station:wmo:42940:1,2022-01-01T18:34:00Z,27.6913,-91.1141,10.0,33.7,11111222
LLOG,ioos:station:wmo:42940:1,2022-01-01T18:44:00Z,27.6913,-91.1141,10.0,33.7,11111222
LLOG,ioos:station:wmo:42940:1,2022-01-01T18:54:00Z,27.6913,-91.1141,10.0,32.2,11111222
LLOG,ioos:station:wmo:42940:1,2022-01-01T19:04:00Z,27.6913,-91.1141,10.0,30.7,11111222
LLOG,ioos:station:wmo:42940:1,2022-01-01T19:14:00Z,27.6913,-91.1141,10.0,34.6,11111222
LLOG,ioos:station:wmo:42940:1,2022-01-01T19:24:00Z,27.6913,-91.1141,10.0,31.7,11111222
LLOG,ioos:station:wmo:42940:1,2022-01-01T19:34:00Z,27.6913,-91.1141,10.0,35.7,11133222
LLOG,ioos:station:wmo:42940:1,2022-01-01T19:44:00Z,27.6913,-91.1141,10.0,36.2,11133222
LLOG,ioos:station:wmo:42940:1,2022-01-01T19:54:00Z,27.6913,-91.1141,10.0,33.4,11111222
LLOG,ioos:station:wmo:42940:1,2022-01-01T20:04:00Z,27.6913,-91.1141,10.0,35.3,11133222
LLOG,ioos:station:wmo:42940:1,2022-01-01T20:14:00Z,27.6913,-91.1141,10.0,36.4,11133222
LLOG,ioos:station:wmo:42940:1,2022-01-01T20:24:00Z,27.6913,-91.1141,10.0,37.5,11133222
LLOG,ioos:station:wmo:42940:1,2022-01-01T20:34:00Z,27.6913,-91.1141,10.0,38.3,11133222
LLOG,ioos:station:wmo:42940:1,2022-01-01T20:44:00Z,27.6913,-91.1141,10.0,40.0,11144222
LLOG,ioos:station:wmo:42940:1,2022-01-01T20:54:00Z,27.6913,-91.1141,10.0,37.8,11133222
LLOG,ioos:station:wmo:42940:1,2022-01-01T21:04:00Z,27.6913,-91.1141,10.0,40.2,11144222
LLOG,ioos:station:wmo:42940:1,2022-01-01T21:14:00Z,27.6913,-91.1141,10.0,37.8,11133222
LLOG,ioos:station:wmo:42940:1,2022-01-01T21:24:00Z,27.6913,-91.1141,10.0,37.6,11133222
LLOG,ioos:station:wmo:42940:1,2022-01-01T21:34:00Z,27.6913,-91.1141,10.0,38.1,11133222
LLOG,ioos:station:wmo:42940:1,2022-01-01T21:44:00Z,27.6913,-91.1141,10.0,35.9,11133222
LLOG,ioos:station:wmo:42940:1,2022-01-01T21:54:00Z,27.6913,-91.1141,10.0,35.9,11133222
LLOG,ioos:station:wmo:42940:1,2022-01-01T22:04:00Z,27.6913,-91.1141,10.0,35.6,11133222
LLOG,ioos:station:wmo:42940:1,2022-01-01T22:14:00Z,27.6913,-91.1141,10.0,37.6,11133222
LLOG,ioos:station:wmo:42940:1,2022-01-01T22:24:00Z,27.6913,-91.1141,10.0,37.4,11133222
LLOG,ioos:station:wmo:42940:1,2022-01-01T22:34:00Z,27.6913,-91.1141,10.0,36.7,11133222
LLOG,ioos:station:wmo:42940:1,2022-01-01T22:44:00Z,27.6913,-91.1141,10.0,36.4,11133222
LLOG,ioos:station:wmo:42940:1,2022-01-01T22:54:00Z,27.6913,-91.1141,10.0,33.5,11111222
LLOG,ioos:station:wmo:42940:1,2022-01-01T23:04:00Z,27.6913,-91.1141,10.0,33.4,11111222
LLOG,ioos:station:wmo:42940:1,2022-01-01T23:14:00Z,27.6913,-91.1141,10.0,35.0,11133222
LLOG,ioos:station:wmo:42940:1,2022-01-01T23:24:00Z,27.6913,-91.1141,10.0,33.6,11111222
LLOG,ioos:station:wmo:42940:1,2022-01-01T23:34:00Z,27.6913,-91.1141,10.0,37.4,11133222
LLOG,ioos:station:wmo:42940:1,2022-01-01T23:44:00Z,27.6913,-91.1141,10.0,36.7,11133222
LLOG,ioos:station:wmo:42940:1,2022-01-01T23:54:00Z,27.6913,-91.1141,10.0,36.0,11133222
LLOG,ioos:station:wmo:42940:1,2022-01-02T00:04:00Z,27.6913,-91.1141,10.0,37.0,11133222
LLOG,ioos:station:wmo:42940:1,2022-01-02T00:14:00Z,27.6913,-91.1141,10.0,38.2,11133222
LLOG,ioos:station:wmo:42940:1,2022-01-02T00:24:00Z,27.6913,-91.1141,10.0,36.1,11133222
LLOG,ioos:station:wmo:42940:1,2022-01-02T00:34:00Z,27.6913,-91.1141,10.0,37.3,11133222
LLOG,ioos:station:wmo:42940:1,2022-01-02T00:44:00Z,27.6913,-91.1141,10.0,37.2,11133222
LLOG,ioos:station:wmo:42940:1,2022-01-02T00:54:00Z,27.6913,-91.1141,10.0,36.0,11133222
LLOG,ioos:station:wmo:42940:1,2022-01-02T01:04:00Z,27.6913,-91.1141,10.0,35.6,11133222
LLOG,ioos:station:wmo:42940:1,2022-01-02T01:14:00Z,27.6913,-91.1141,10.0,35.7,11133222
LLOG,ioos:station:wmo:42940:1,2022-01-02T01:24:00Z,27.6913,-91.1141,10.0,35.3,11133222
LLOG,ioos:station:wmo:42940:1,2022-01-02T01:34:00Z,27.6913,-91.1141,10.0,37.2,11133222
LLOG,ioos:station:wmo:42940:1,2022-01-02T01:44:00Z,27.6913,-91.1141,10.0,37.6,11133222
LLOG,ioos:station:wmo:42940:1,2022-01-02T01:54:00Z,27.6913,-91.1141,10.0,38.0,11133222
LLOG,ioos:station:wmo:42940:1,2022-01-02T02:04:00Z,27.6913,-91.1141,10.0,36.1,11133222
LLOG,ioos:station:wmo:42940:1,2022-01-02T02:14:00Z,27.6913,-91.1141,10.0,35.8,11133222
LLOG,ioos:station:wmo:42940:1,2022-01-02T02:24:00Z,27.6913,-91.1141,10.0,36.5,11133222
LLOG,ioos:station:wmo:42940:1,2022-01-02T02:34:00Z,27.6913,-91.1141,10.0,36.7,11133222
LLOG,ioos:station:wmo:42940:1,2022-01-02T02:44:00Z,27.6913,-91.1141,10.0,37.6,11133222
LLOG,ioos:station:wmo:42940:1,2022-01-02T02:54:00Z,27.6913,-91.1141,10.0,36.5,11133222
LLOG,ioos:station:wmo:42940:1,2022-01-02T03:04:00Z,27.6913,-91.1141,10.0,38.3,11133222
LLOG,ioos:station:wmo:42940:1,2022-01-02T03:14:00Z,27.6913,-91.1141,10.0,37.7,11133222
LLOG,ioos:station:wmo:42940:1,2022-01-02T03:24:00Z,27.6913,-91.1141,10.0,33.9,11111222
LLOG,ioos:station:wmo:42940:1,2022-01-02T03:34:00Z,27.6913,-91.1141,10.0,35.1,11133222
LLOG,ioos:station:wmo:42940:1,2022-01-02T03:44:00Z,27.6913,-91.1141,10.0,36.0,11133222
LLOG,ioos:station:wmo:42940:1,2022-01-02T03:54:00Z,27.6913,-91.1141,10.0,37.9,11133222
LLOG,ioos:station:wmo:42940:1,2022-01-02T04:04:00Z,27.6913,-91.1141,10.0,38.2,11133222
LLOG,ioos:station:wmo:42940:1,2022-01-02T04:14:00Z,27.6913,-91.1141,10.0,38.3,11133222
LLOG,ioos:station:wmo:42940:1,2022-01-02T04:24:00Z,27.6913,-91.1141,10.0,35.3,11133222
LLOG,ioos:station:wmo:42940:1,2022-01-02T04:34:00Z,27.6913,-91.1141,10.0,36.8,11133222
LLOG,ioos:station:wmo:42940:1,2022-01-02T04:44:00Z,27.6913,-91.1141,10.0,36.0,11133222
LLOG,ioos:station:wmo:42940:1,2022-01-02T04:54:00Z,27.6913,-91.1141,10.0,36.7,11133222
LLOG,ioos:station:wmo:42940:1,2022-01-02T05:04:00Z,27.6913,-91.1141,10.0,37.5,11133222
LLOG,ioos:station:wmo:42940:1,2022-01-02T05:14:00Z,27.6913,-91.1141,10.0,38.6,11133222
LLOG,ioos:station:wmo:42940:1,2022-01-02T05:24:00Z,27.6913,-91.1141,10.0,38.9,11133222
LLOG,ioos:station:wmo:42940:1,2022-01-02T05:34:00Z,27.6913,-91.1141,10.0,37.5,11133222
LLOG,ioos:station:wmo:42940:1,2022-01-02T05:44:00Z,27.6913,-91.1141,10.0,36.0,11133222
LLOG,ioos:station:wmo:42940:1,2022-01-02T05:54:00Z,27.6913,-91.1141,10.0,37.1,11133222
LLOG,ioos:station:wmo:42940:1,2022-01-02T06:04:00Z,27.6913,-91.1141,10.0,37.2,11133222
LLOG,ioos:station:wmo:42940:1,2022-01-02T06:14:00Z,27.6913,-91.1141,10.0,37.3,11133222
LLOG,ioos:station:wmo:42940:1,2022-01-02T06:24:00Z,27.6913,-91.1141,10.0,35.7,11133222
LLOG,ioos:station:wmo:42940:1,2022-01-02T06:34:00Z,27.6913,-91.1141,10.0,38.6,11133222
LLOG,ioos:station:wmo:42940:1,2022-01-02T06:44:00Z,27.6913,-91.1141,10.0,37.2,11133222
LLOG,ioos:station:wmo:42940:1,2022-01-02T06:54:00Z,27.6913,-91.1141,10.0,41.3,11144222
LLOG,ioos:station:wmo:42940:1,2022-01-02T07:04:00Z,27.6913,-91.1141,10.0,37.4,11133222
LLOG,ioos:station:wmo:42940:1,2022-01-02T07:14:00Z,27.6913,-91.1141,10.0,36.0,11133222
LLOG,ioos:station:wmo:42940:1,2022-01-02T07:24:00Z,27.6913,-91.1141,10.0,37.2,11133222
LLOG,ioos:station:wmo:42940:1,2022-01-02T07:34:00Z,27.6913,-91.1141,10.0,36.9,11133222
LLOG,ioos:station:wmo:42940:1,2022-01-02T07:44:00Z,27.6913,-91.1141,10.0,36.3,11133222
LLOG,ioos:station:wmo:42940:1,2022-01-02T07:54:00Z,27.6913,-91.1141,10.0,35.8,11133222
LLOG,ioos:station:wmo:42940:1,2022-01-02T08:04:00Z,27.6913,-91.1141,10.0,37.5,11133222
LLOG,ioos:station:wmo:42940:1,2022-01-02T08:14:00Z,27.6913,-91.1141,10.0,38.2,11133222
LLOG,ioos:station:wmo:42940:1,2022-01-02T08:24:00Z,27.6913,-91.1141,10.0,35.7,11133222
LLOG,ioos:station:wmo:42940:1,2022-01-02T08:34:00Z,27.6913,-91.1141,10.0,36.0,11133222
LLOG,ioos:station:wmo:42940:1,2022-01-02T08:44:00Z,27.6913,-91.1141,10.0,33.9,11111222
LLOG,ioos:station:wmo:42940:1,2022-01-02T08:54:00Z,27.6913,-91.1141,10.0,36.8,11133222
LLOG,ioos:station:wmo:42940:1,2022-01-02T09:04:00Z,27.6913,-91.1141,10.0,35.8,11133222
LLOG,ioos:station:wmo:42940:1,2022-01-02T09:14:00Z,27.6913,-91.1141,10.0,36.5,11133222
LLOG,ioos:station:wmo:42940:1,2022-01-02T09:24:00Z,27.6913,-91.1141,10.0,35.0,11133222
LLOG,ioos:station:wmo:42940:1,2022-01-02T09:34:00Z,27.6913,-91.1141,10.0,35.5,11133222
LLOG,ioos:station:wmo:42940:1,2022-01-02T09:44:00Z,27.6913,-91.1141,10.0,33.9,11111222
LLOG,ioos:station:wmo:42940:1,2022-01-02T09:54:00Z,27.6913,-91.1141,10.0,36.1,11133222
LLOG,ioos:station:wmo:42940:1,2022-01-02T10:04:00Z,27.6913,-91.1141,10.0,36.7,11133222
LLOG,ioos:station:wmo:42940:1,2022-01-02T10:14:00Z,27.6913,-91.1141,10.0,38.5,11133222
LLOG,ioos:station:wmo:42940:1,2022-01-02T10:24:00Z,27.6913,-91.1141,10.0,39.4,11133222
LLOG,ioos:station:wmo:42940:1,2022-01-02T10:34:00Z,27.6913,-91.1141,10.0,35.1,11133222
LLOG,ioos:station:wmo:42940:1,2022-01-02T10:44:00Z,27.6913,-91.1141,10.0,37.6,11133222
LLOG,ioos:station:wmo:42940:1,2022-01-02T10:54:00Z,27.6913,-91.1141,10.0,38.8,11133222
LLOG,ioos:station:wmo:42940:1,2022-01-02T11:04:00Z,27.6913,-91.1141,10.0,39.1,11133222
LLOG,ioos:station:wmo:42940:1,2022-01-02T11:14:00Z,27.6913,-91.1141,10.0,36.1,11133222
LLOG,ioos:station:wmo:42940:1,2022-01-02T11:24:00Z,27.6913,-91.1141,10.0,39.6,11133222
LLOG,ioos:station:wmo:42940:1,2022-01-02T11:34:00Z,27.6913,-91.1141,10.0,40.1,11144222
LLOG,ioos:station:wmo:42940:1,2022-01-02T11:44:00Z,27.6913,-91.1141,10.0,40.5,11144222
LLOG,ioos:station:wmo:42940:1,2022-01-02T11:54:00Z,27.6913,-91.1141,10.0,39.2,11133222
LLOG,ioos:station:wmo:42940:1,2022-01-02T12:04:00Z,27.6913,-91.1141,10.0,38.5,11133222
LLOG,ioos:station:wmo:42940:1,2022-01-02T12:14:00Z,27.6913,-91.1141,10.0,39.2,11133222
LLOG,ioos:station:wmo:42940:1,2022-01-02T12:24:00Z,27.6913,-91.1141,10.0,37.1,11133222
LLOG,ioos:station:wmo:42940:1,2022-01-02T12:34:00Z,27.6913,-91.1141,10.0,36.1,11133222
LLOG,ioos:station:wmo:42940:1,2022-01-02T12:44:00Z,27.6913,-91.1141,10.0,36.6,11133222
LLOG,ioos:station:wmo:42940:1,2022-01-02T12:54:00Z,27.6913,-91.1141,10.0,39.3,11133222
LLOG,ioos:station:wmo:42940:1,2022-01-02T13:04:00Z,27.6913,-91.1141,10.0,37.8,11133222
LLOG,ioos:station:wmo:42940:1,2022-01-02T13:14:00Z,27.6913,-91.1141,10.0,38.6,11133222
LLOG,ioos:station:wmo:42940:1,2022-01-02T13:24:00Z,27.6913,-91.1141,10.0,38.9,11133222
LLOG,ioos:station:wmo:42940:1,2022-01-02T13:34:00Z,27.6913,-91.1141,10.0,36.2,11133222
LLOG,ioos:station:wmo:42940:1,2022-01-02T13:44:00Z,27.6913,-91.1141,10.0,35.5,11133222
LLOG,ioos:station:wmo:42940:1,2022-01-02T13:54:00Z,27.6913,-91.1141,10.0,35.9,11133222
LLOG,ioos:station:wmo:42940:1,2022-01-02T14:04:00Z,27.6913,-91.1141,10.0,36.9,11133222
LLOG,ioos:station:wmo:42940:1,2022-01-02T14:14:00Z,27.6913,-91.1141,10.0,38.0,11133222
LLOG,ioos:station:wmo:42940:1,2022-01-02T14:24:00Z,27.6913,-91.1141,10.0,35.1,11133222
LLOG,ioos:station:wmo:42940:1,2022-01-02T14:34:00Z,27.6913,-91.1141,10.0,35.1,11133222
LLOG,ioos:station:wmo:42940:1,2022-01-02T14:44:00Z,27.6913,-91.1141,10.0,38.0,11133222
LLOG,ioos:station:wmo:42940:1,2022-01-02T14:54:00Z,27.6913,-91.1141,10.0,39.0,11133222
LLOG,ioos:station:wmo:42940:1,2022-01-02T15:04:00Z,27.6913,-91.1141,10.0,34.0,11111222
LLOG,ioos:station:wmo:42940:1,2022-01-02T15:14:00Z,27.6913,-91.1141,10.0,34.6,11111222
LLOG,ioos:station:wmo:42940:1,2022-01-02T15:24:00Z,27.6913,-91.1141,10.0,34.5,11111222
LLOG,ioos:station:wmo:42940:1,2022-01-02T15:34:00Z,27.6913,-91.1141,10.0,37.3,11133222
LLOG,ioos:station:wmo:42940:1,2022-01-02T15:44:00Z,27.6913,-91.1141,10.0,37.0,11133222
LLOG,ioos:station:wmo:42940:1,2022-01-02T15:54:00Z,27.6913,-91.1141,10.0,34.2,11111222
LLOG,ioos:station:wmo:42940:1,2022-01-02T16:04:00Z,27.6913,-91.1141,10.0,34.2,11111222
LLOG,ioos:station:wmo:42940:1,2022-01-02T16:14:00Z,27.6913,-91.1141,10.0,34.1,11111222
LLOG,ioos:station:wmo:42940:1,2022-01-02T16:24:00Z,27.6913,-91.1141,10.0,36.8,11133222
LLOG,ioos:station:wmo:42940:1,2022-01-02T16:34:00Z,27.6913,-91.1141,10.0,35.3,11133222
LLOG,ioos:station:wmo:42940:1,2022-01-02T16:44:00Z,27.6913,-91.1141,10.0,33.9,11111222
LLOG,ioos:station:wmo:42940:1,2022-01-02T16:54:00Z,27.6913,-91.1141,10.0,33.0,11111222
LLOG,ioos:station:wmo:42940:1,2022-01-02T17:04:00Z,27.6913,-91.1141,10.0,34.3,11111222
LLOG,ioos:station:wmo:42940:1,2022-01-02T17:14:00Z,27.6913,-91.1141,10.0,36.2,11133222
LLOG,ioos:station:wmo:42940:1,2022-01-02T17:24:00Z,27.6913,-91.1141,10.0,36.6,11133222
LLOG,ioos:station:wmo:42940:1,2022-01-02T17:34:00Z,27.6913,-91.1141,10.0,35.6,11133222
LLOG,ioos:station:wmo:42940:1,2022-01-02T17:44:00Z,27.6913,-91.1141,10.0,39.6,11133222
LLOG,ioos:station:wmo:42940:1,2022-01-02T17:54:00Z,27.6913,-91.1141,10.0,36.8,11133222
LLOG,ioos:station:wmo:42940:1,2022-01-02T18:04:00Z,27.6913,-91.1141,10.0,36.1,11133222
LLOG,ioos:station:wmo:42940:1,2022-01-02T18:14:00Z,27.6913,-91.1141,10.0,37.2,11133222
LLOG,ioos:station:wmo:42940:1,2022-01-02T18:24:00Z,27.6913,-91.1141,10.0,37.6,11133222
LLOG,ioos:station:wmo:42940:1,2022-01-02T18:34:00Z,27.6913,-91.1141,10.0,37.8,11133222
LLOG,ioos:station:wmo:42940:1,2022-01-02T18:44:00Z,27.6913,-91.1141,10.0,38.0,11133222
LLOG,ioos:station:wmo:42940:1,2022-01-02T18:54:00Z,27.6913,-91.1141,10.0,37.8,11133222
LLOG,ioos:station:wmo:42940:1,2022-01-02T19:04:00Z,27.6913,-91.1141,10.0,37.7,11133222
LLOG,ioos:station:wmo:42940:1,2022-01-02T19:14:00Z,27.6913,-91.1141,10.0,38.2,11133222
LLOG,ioos:station:wmo:42940:1,2022-01-02T19:24:00Z,27.6913,-91.1141,10.0,39.0,11133222
LLOG,ioos:station:wmo:42940:1,2022-01-02T19:34:00Z,27.6913,-91.1141,10.0,37.8,11133222
LLOG,ioos:station:wmo:42940:1,2022-01-02T19:44:00Z,27.6913,-91.1141,10.0,37.1,11133222
LLOG,ioos:station:wmo:42940:1,2022-01-02T19:54:00Z,27.6913,-91.1141,10.0,34.7,11111222
LLOG,ioos:station:wmo:42940:1,2022-01-02T20:04:00Z,27.6913,-91.1141,10.0,33.3,11111222
LLOG,ioos:station:wmo:42940:1,2022-01-02T20:14:00Z,27.6913,-91.1141,10.0,33.8,11111222
LLOG,ioos:station:wmo:42940:1,2022-01-02T20:24:00Z,27.6913,-91.1141,10.0,34.5,11111222
LLOG,ioos:station:wmo:42940:1,2022-01-02T20:34:00Z,27.6913,-91.1141,10.0,36.8,11133222
LLOG,ioos:station:wmo:42940:1,2022-01-02T20:44:00Z,27.6913,-91.1141,10.0,32.7,11111222
LLOG,ioos:station:wmo:42940:1,2022-01-02T20:54:00Z,27.6913,-91.1141,10.0,39.0,11133222
LLOG,ioos:station:wmo:42940:1,2022-01-02T21:04:00Z,27.6913,-91.1141,10.0,34.4,11111222